Location: Rounton
(54.4000°N, 1.3500°W)
Time: 14:11:46
(UTC+00:00)

Transit 4A - Pass Details

Date: 04 December 2021
Orbit: 864 x 981 km, 66.8° (Epoch: 20 January)

Event Time Altitude Azimuth Distance (km) Brightness Sun altitude
Rises 20:06:40 0° 220° (SW) 3,467 11.2 -36.9°
Reaches altitude 10° 20:09:07 10° 220° (SW) 2,545 10.4 -37.2°
Enters shadow 20:10:05 15° 221° (SW) 2,188 10.0 -37.4°
Maximum altitude 20:15:02 89° 307° (NW) 912 - -38.1°
Drops below altitude 10° 20:21:11 10° 42° (NE) 2,637 - -38.9°
Sets 20:23:45 0° 43° (NE) 3,602 - -39.3°
